{"data":{"norad_id":64109,"epoch":"2026-05-24T23:01:02.053056Z","epoch_age_seconds":71848,"freshness":"FRESH","line1":"1 64109U 25110P   26144.95905154  .00025043  00000+0  81557-3 0  9996","line2":"2 64109  53.1604  32.2177 0000877  84.8803 275.2298 15.31718939 57561","mean_motion":15.31718939,"eccentricity":8.77e-5,"inclination_deg":53.1604,"raan_deg":32.2177,"arg_perigee_deg":84.8803,"mean_anomaly_deg":275.2298,"bstar":0.00081557,"rev_number":5756,"period_min":94.012025531271,"perigee_km":470.08289807254,"apogee_km":471.28418119519,"semimajor_km":6848.8205396339,"source":"CELESTRAK","updated_at":"2026-05-25T13:38:20.266695Z"}}